Stations météo

réclame
Mon MeteoGroup
Tain Range, Grande-Bretagne (3062): Température de l'air & dewpoint: 16.03.2019 06:00:00 - 22.03.2019 06:00:00 (GMT)Tain Range, Grande-Bretagne (3062): Température de l'air -20cm & Température de l'air -100cm: 16.03.2019 06:00:00 - 22.03.2019 06:00:00 (GMT)Tain Range, Grande-Bretagne (3062): Vitesse du vent & gusts: 16.03.2019 06:00:00 - 22.03.2019 06:00:00 (GMT)Tain Range, Grande-Bretagne (3062): Direction du vent: 16.03.2019 06:00:00 - 22.03.2019 06:00:00 (GMT)Tain Range, Grande-Bretagne (3062): reduced air pressure: 16.03.2019 06:00:00 - 22.03.2019 06:00:00 (GMT)Tain Range, Grande-Bretagne (3062): visibility: 16.03.2019 06:00:00 - 22.03.2019 06:00:00 (GMT)Tain Range, Grande-Bretagne (3062): Quantités de précipitations: 16.03.2019 06:00:00 - 22.03.2019 06:00:00 (GMT)
Date & Time tt [°C] td [°C] tt -20cm [°C] tt -100cm [°C] ff [km/h] ff [knt] fx [km/h] fx [knt] dd ppp [hPa] vv [km] rr [mm]
22.03.2019 06:00:00 10,4 5,9 - - 15 8 - - SSE 1012,3 50 0,0
22.03.2019 05:00:00 10,6 5,9 - - 24 13 - - SSW 1013,5 45 0,0
22.03.2019 04:00:00 10,0 5,8 - - 31 17 46 25 S 1014,3 20 0,0
22.03.2019 03:00:00 10,2 5,5 - - 26 14 - - S 1015,5 17 0,0
22.03.2019 02:00:00 10,8 6,7 - - 34 18 50 27 S 1016,2 29 0,0
22.03.2019 01:00:00 10,9 7,6 - - 26 14 - - S 1017,6 45 0,0
22.03.2019 00:00:00 10,9 7,7 - - 22 12 - - SSW 1018,8 50 0,0
21.03.2019 23:00:00 10,2 7,5 - - 15 8 - - S 1020,3 50 0,0
21.03.2019 22:00:00 8,7 6,6 - - 8 4 - - ESE 1021,6 50 0,0
21.03.2019 21:00:00 8,6 7,3 - - 5 3 - - ESE 1023,2 30 0,0
21.03.2019 20:00:00 9,0 7,4 - - 13 7 - - SE 1024,0 45 0,0
21.03.2019 19:00:00 8,8 6,7 - - 5 3 - - E 1025,1 50 0,0
21.03.2019 18:00:00 9,0 6,7 - - 18 10 - - ESE 1025,3 40 0,0
21.03.2019 17:00:00 9,1 5,8 - - 22 12 - - SE 1025,9 30 0,0
21.03.2019 16:00:00 9,8 6,3 - - 16 9 - - E 1027,7 50 0,0
21.03.2019 15:00:00 9,6 6,5 - - 13 7 - - E 1027,7 40 0,0
21.03.2019 14:00:00 10,2 7,9 - - 15 8 - - ESE 1027,4 35 0,0
21.03.2019 13:00:00 9,9 6,4 - - 13 7 - - SE 1027,4 50 0,0
21.03.2019 12:00:00 8,8 6,4 - - 16 9 - - SE 1027,4 50 0,0
21.03.2019 11:00:00 9,2 6,4 - - 11 6 - - ESE 1027,1 30 0,0
21.03.2019 10:00:00 8,5 6,9 - - 8 4 - - NE 1026,6 40 0,0
21.03.2019 09:00:00 8,6 6,8 6,7 5,7 15 8 - - WNW 1025,6 40 0,0
21.03.2019 08:00:00 8,3 6,8 - - 15 8 - - WNW 1024,7 50 0,0
21.03.2019 07:00:00 9,0 7,7 - - 15 8 - - NW 1022,8 50 0,0
21.03.2019 06:00:00 9,3 8,2 - - 22 12 54 29 WNW 1021,2 26 0,6
21.03.2019 05:00:00 10,9 8,6 - - 11 6 - - SW 1019,5 45 0,0
21.03.2019 04:00:00 11,4 8,6 - - 15 8 - - WSW 1018,7 50 0,0
21.03.2019 03:00:00 11,4 8,9 - - 15 8 - - WSW 1018,2 50 0,0
21.03.2019 02:00:00 10,8 9,3 - - 22 12 - - SW 1018,0 50 0,0
21.03.2019 01:00:00 11,1 9,3 - - 31 17 48 26 SW 1017,6 30 0,0
21.03.2019 00:00:00 11,3 9,0 - - 21 11 - - WSW 1017,5 50 0,0
20.03.2019 23:00:00 10,7 9,3 - - 13 7 - - WSW 1017,5 5 0,0
20.03.2019 22:00:00 12,2 8,4 - - 21 11 - - WSW 1016,9 35 0,0
20.03.2019 21:00:00 12,0 7,7 - - 34 18 50 27 S 1016,8 40 0,0
20.03.2019 20:00:00 12,8 7,7 - - 21 11 52 28 WSW 1017,3 50 0,0
20.03.2019 19:00:00 11,6 9,4 - - 29 16 46 25 SSW 1016,9 30 0,0
20.03.2019 18:00:00 12,2 8,9 - - 31 17 - - SSW 1016,9 45 0,0
20.03.2019 17:00:00 12,6 8,8 - - 31 17 - - SSW 1017,3 50 0,0
20.03.2019 16:00:00 13,3 8,9 - - 29 16 48 26 SW 1018,1 50 0,0
20.03.2019 15:00:00 13,0 8,2 - - 28 15 - - SW 1018,6 45 0,0
20.03.2019 14:00:00 11,9 7,6 - - 15 8 - - S 1019,8 35 0,0
20.03.2019 13:00:00 11,7 7,6 - - 22 12 - - SSW 1020,9 50 0,0
20.03.2019 12:00:00 11,7 6,3 - - 22 12 - - SSW 1021,6 45 0,0
20.03.2019 11:00:00 10,4 5,9 - - 15 8 - - S 1022,1 23 0,0
20.03.2019 10:00:00 10,0 5,1 - - 15 8 - - S 1022,6 19 0,0
20.03.2019 09:00:00 9,3 4,3 5,9 5,7 13 7 - - SW 1023,0 12 0,0
20.03.2019 08:00:00 8,2 3,9 - - 22 12 - - SW 1022,4 16 0,0
20.03.2019 07:00:00 7,4 2,0 - - 16 9 - - SW 1022,2 16 0,0
20.03.2019 06:00:00 6,8 1,9 - - 8 4 - - WNW 1021,9 20 0,0
20.03.2019 05:00:00 7,6 3,9 - - 5 3 - - W 1021,3 20 0,0
20.03.2019 04:00:00 7,8 3,9 - - 5 3 - - NNW 1020,7 17 0,0
20.03.2019 03:00:00 8,4 4,4 - - 9 5 - - WSW 1020,5 21 0,0
20.03.2019 02:00:00 8,3 4,3 - - 21 11 - - S 1020,0 16 0,0
20.03.2019 01:00:00 8,1 3,6 - - 18 10 - - S 1020,0 14 0,0
20.03.2019 00:00:00 8,6 2,9 - - 21 11 - - SW 1020,1 18 0,0
19.03.2019 23:00:00 7,9 3,3 - - 8 4 - - WSW 1019,7 16 0,0
19.03.2019 22:00:00 8,5 4,5 - - 11 6 - - W 1019,1 15 0,0
19.03.2019 21:00:00 8,2 5,6 - - 9 5 - - WNW 1018,0 40 0,0
19.03.2019 20:00:00 9,6 6,5 - - 13 7 - - W 1017,5 35 0,0
19.03.2019 19:00:00 11,1 7,0 - - 26 14 - - WSW 1016,7 45 0,0
19.03.2019 18:00:00 11,2 7,1 - - 29 16 - - WSW 1015,9 50 0,0
19.03.2019 17:00:00 12,0 7,4 - - 31 17 52 28 WSW 1015,4 50 0,0
19.03.2019 16:00:00 12,9 7,2 - - 39 21 52 28 W 1014,9 50 0,0
19.03.2019 15:00:00 13,6 7,5 - - 15 8 - - WSW 1015,0 50 0,0
19.03.2019 14:00:00 13,6 8,1 - - 24 13 - - W 1015,0 50 0,0
19.03.2019 13:00:00 13,7 8,4 - - 29 16 - - WSW 1014,6 50 0,0
19.03.2019 12:00:00 11,4 7,0 - - 15 8 - - SW 1014,5 30 0,0
19.03.2019 11:00:00 9,9 5,9 - - 21 11 - - SSW 1015,3 50 0,0
19.03.2019 10:00:00 9,4 5,7 - - 24 13 - - SW 1015,7 45 0,0
19.03.2019 09:00:00 8,1 6,1 5,0 5,5 11 6 - - SSW 1015,9 45 0,0
19.03.2019 08:00:00 7,3 5,9 - - 13 7 - - SSW 1016,4 50 0,0
19.03.2019 07:00:00 6,2 4,8 - - 11 6 - - S 1016,8 50 0,0
19.03.2019 06:00:00 6,1 4,6 - - 13 7 - - SW 1017,0 40 0,0
19.03.2019 05:00:00 5,5 3,6 - - 4 2 - - S 1017,1 50 0,0
19.03.2019 04:00:00 6,0 4,7 - - 8 4 - - SSW 1017,3 50 0,0
19.03.2019 03:00:00 4,5 3,7 - - 5 3 - - SSW 1017,9 50 0,0
19.03.2019 02:00:00 4,0 3,1 - - 15 8 - - SSW 1018,1 50 0,0
19.03.2019 01:00:00 3,6 3,0 - - 13 7 - - WSW 1018,6 35 0,0
19.03.2019 00:00:00 3,8 3,2 - - 5 3 - - SSW 1018,5 50 0,0
18.03.2019 23:00:00 3,8 3,1 - - 5 3 - - WSW 1018,5 35 0,0
18.03.2019 22:00:00 4,1 2,8 - - 11 6 - - SSW 1018,4 50 0,0
18.03.2019 21:00:00 4,8 3,5 - - 4 2 - - SSW 1018,3 45 0,0
18.03.2019 20:00:00 4,8 3,5 - - 8 4 - - SSW 1018,0 35 0,0
18.03.2019 19:00:00 4,2 2,4 - - 13 7 - - SE 1017,4 28 0,0
18.03.2019 18:00:00 5,5 2,8 - - 15 8 - - SE 1017,1 30 0,0
18.03.2019 17:00:00 8,3 3,6 - - 15 8 - - SE 1016,5 40 0,0
18.03.2019 16:00:00 9,9 3,5 - - 13 7 - - S 1016,0 50 0,0
18.03.2019 15:00:00 10,0 2,9 - - 15 8 - - S 1015,7 30 0,0
18.03.2019 14:00:00 9,5 2,7 - - 16 9 - - S 1015,4 50 0,0
18.03.2019 13:00:00 9,5 3,0 - - 18 10 - - SSW 1015,2 40 0,0
18.03.2019 12:00:00 8,3 2,2 - - 16 9 - - SSW 1015,1 35 0,0
18.03.2019 11:00:00 7,4 2,2 - - 16 9 - - SSW 1014,9 45 0,0
18.03.2019 10:00:00 6,1 1,8 - - 11 6 - - S 1014,5 40 0,0
18.03.2019 09:00:00 3,7 0,8 4,9 5,5 13 7 - - SSW 1014,1 24 0,0
18.03.2019 08:00:00 1,4 -0,2 - - 11 6 - - WSW 1013,5 35 0,0
18.03.2019 07:00:00 -1,3 -2,8 - - 9 5 - - WSW 1013,1 30 0,0
18.03.2019 06:00:00 -0,3 -2,0 - - 5 3 - - SW 1012,8 30 0,0
18.03.2019 05:00:00 -0,4 -2,0 - - 8 4 - - SSW 1012,7 28 0,0
18.03.2019 04:00:00 0,1 -1,9 - - 5 3 - - WSW 1012,6 40 0,0
18.03.2019 03:00:00 0,6 -1,2 - - 8 4 - - SW 1012,6 35 0,0
18.03.2019 02:00:00 -0,7 -2,8 - - 9 5 - - SW 1012,1 28 0,0
18.03.2019 01:00:00 0,2 -1,8 - - 16 9 - - SW 1012,0 40 0,0
18.03.2019 00:00:00 1,5 -0,6 - - 18 10 - - WNW 1011,4 45 0,0
17.03.2019 23:00:00 1,9 -0,3 - - 13 7 - - WNW 1011,0 40 0,0
17.03.2019 22:00:00 2,4 0,1 - - 15 8 - - WNW 1010,2 45 0,0
17.03.2019 21:00:00 2,9 0,3 - - 15 8 - - WNW 1010,0 45 0,0
17.03.2019 20:00:00 3,9 -0,1 - - 22 12 - - WNW 1009,1 40 0,0
17.03.2019 19:00:00 4,7 -0,6 - - 28 15 - - NW 1008,1 40 0,0
17.03.2019 18:00:00 4,5 -0,2 - - 21 11 - - NW 1006,5 35 0,0
17.03.2019 17:00:00 5,1 1,1 - - 35 19 46 25 NW 1005,2 30 0,0
17.03.2019 16:00:00 4,8 1,3 - - 28 15 61 33 NNW 1003,8 30 0,2
17.03.2019 15:00:00 6,0 0,5 - - 34 18 54 29 NNW 1002,2 22 0,0
17.03.2019 14:00:00 7,0 3,0 - - 22 12 55 30 N 1001,3 30 0,0
17.03.2019 13:00:00 4,8 1,5 - - 42 23 68 37 N 999,8 23 0,0
17.03.2019 12:00:00 7,8 3,8 - - 28 15 46 25 NNW 997,5 30 0,0
17.03.2019 11:00:00 5,4 3,4 - - 26 14 - - WNW 995,9 45 0,2
17.03.2019 10:00:00 4,3 2,8 - - 22 12 - - NW 994,5 50 0,2
17.03.2019 09:00:00 4,3 2,5 5,0 5,7 29 16 46 25 WNW 992,5 19 0,0
17.03.2019 08:00:00 3,6 1,8 - - 26 14 - - WNW 991,0 30 0,0
17.03.2019 07:00:00 2,9 1,5 - - 24 13 - - W 989,9 50 0,0
17.03.2019 06:00:00 2,6 1,1 - - 24 13 - - W 989,1 50 0,0
17.03.2019 05:00:00 2,8 1,5 - - 29 16 48 26 WNW 988,3 40 0,0
17.03.2019 04:00:00 3,1 1,9 - - 35 19 50 27 WNW 987,5 18 0,8
17.03.2019 03:00:00 2,8 1,8 - - 34 18 50 27 WNW 987,2 3,8 0,8
17.03.2019 02:00:00 2,6 1,4 - - 35 19 52 28 WNW 986,7 6 0,0
17.03.2019 01:00:00 2,2 1,0 - - 35 19 48 26 WNW 986,5 50 0,2
17.03.2019 00:00:00 2,8 1,5 - - 22 12 - - WNW 986,6 40 0,0
16.03.2019 23:00:00 2,5 1,1 - - 21 11 - - W 986,4 50 0,0
16.03.2019 22:00:00 2,6 1,4 - - 28 15 - - WNW 986,0 35 0,2
16.03.2019 21:00:00 2,7 1,1 - - 28 15 - - WNW 985,8 50 0,0
16.03.2019 20:00:00 2,4 1,5 - - 22 12 - - WNW 985,6 40 0,0
16.03.2019 19:00:00 2,2 1,3 - - 18 10 - - WNW 985,6 11 0,6
16.03.2019 18:00:00 2,4 1,3 - - 18 10 - - NW 985,4 23 0,2
16.03.2019 17:00:00 2,5 1,5 - - 16 9 - - NNW 985,3 20 0,6
16.03.2019 16:00:00 2,5 1,4 - - 15 8 - - N 985,5 18 0,6
16.03.2019 15:00:00 2,9 1,8 - - 15 8 - - N 985,7 22 0,4
16.03.2019 14:00:00 2,9 1,7 - - 13 7 - - NE 986,4 25 0,2
16.03.2019 13:00:00 3,0 1,4 - - 9 5 - - ENE 987,6 18 0,4
16.03.2019 12:00:00 2,8 1,3 - - 11 6 - - ESE 988,5 29 0,0
16.03.2019 11:00:00 3,1 1,2 - - 11 6 - - SSE 989,7 30 0,0
16.03.2019 10:00:00 3,2 1,4 - - 16 9 - - SSW 990,5 45 0,0
16.03.2019 09:00:00 3,3 1,3 5,2 5,7 16 9 - - SSW 991,4 28 0,0
16.03.2019 08:00:00 3,4 1,5 - - 18 10 - - SSW 991,8 40 0,0
16.03.2019 07:00:00 2,6 0,8 - - 11 6 - - S 992,5 40 0,0
16.03.2019 06:00:00 2,3 0,3 - - 11 6 - - SW 993,4 35 0,0

tt = Température de l'air
td = dewpoint
tt -20cm = Température de l'air -20cm
tt -100cm = Température de l'air -100cm
ff = Vitesse du vent
fx = gusts
dd = Direction du vent
ppp = reduced air pressure
vv = visibility
rr = Quantités de précipitations

stations d'obs. à proximité